This is the latest recevied weather packets stored in our database for station/object W0WC. If no packets are shown the sender has not sent any weather packets the latest 1 day(s).
| Time | Temp. | Humidity | Pressure | Rain* | Wind** | Luminosity | Snow |
|---|---|---|---|---|---|---|---|
| 1836274778 | 22.78° C | 71% | 1017.9 hPa | 0 mm | 0.45 m/s, 32° | 0 W/m² | - |
| 1836274476 | 22.78° C | 70% | 1017.6 hPa | 0 mm | 0 m/s | 0 W/m² | - |
| 1836274330 | 22.78° C | 71% | 1017.6 hPa | 0 mm | 0 m/s | 0 W/m² | - |
| 1836274174 | 22.78° C | 71% | 1017.8 hPa | 0 mm | 0 m/s | 0 W/m² | - |
| 1836273869 | 22.78° C | 70% | 1017.6 hPa | 0 mm | 0 m/s | 0 W/m² | - |
| 1778057321 | 7.78° C | 89% | 1015 hPa | 1.27 mm | 0.45 m/s, 6° | 0 W/m² | - |
| 1778057018 | 7.78° C | 89% | 1014.6 hPa | 1.27 mm | 0.45 m/s, 358° | 0 W/m² | - |
| 1778056714 | 7.78° C | 88% | 1014.6 hPa | 0 mm | 1.34 m/s, 8° | 0 W/m² | - |
| 1778056412 | 7.78° C | 87% | 1014.1 hPa | 0 mm | 0.89 m/s, 20° | 0 W/m² | - |
| 1778056109 | 7.78° C | 87% | 1014.1 hPa | 0 mm | 1.34 m/s, 20° | 0 W/m² | - |
| 1778055817 | 7.78° C | 87% | 1014.5 hPa | 0 mm | 0.89 m/s, 28° | 0 W/m² | - |
| 1778055502 | 7.78° C | 87% | 1014.7 hPa | 0 mm | 0.89 m/s, 4° | 0 W/m² | - |
| 1778055200 | 7.78° C | 88% | 1014 hPa | 0 mm | 0 m/s | 0 W/m² | - |
| 1778054897 | 7.78° C | 87% | 1013.9 hPa | 0 mm | 0.45 m/s, 53° | 0 W/m² | - |
| 1778054593 | 7.78° C | 87% | 1013.7 hPa | 0 mm | 1.34 m/s, 16° | 0 W/m² | - |
| 1778054291 | 7.78° C | 87% | 1014.7 hPa | 0 mm | 0.89 m/s, 305° | 0 W/m² | - |
| 1778053988 | 7.78° C | 87% | 1014.6 hPa | 0 mm | 1.79 m/s, 311° | 0 W/m² | - |
| 1778053686 | 7.78° C | 86% | 1014.6 hPa | 0 mm | 1.34 m/s, 349° | 0 W/m² | - |
| 1778053383 | 7.78° C | 86% | 1014 hPa | 0 mm | 0.89 m/s, 5° | 0 W/m² | - |
| 1778053080 | 7.78° C | 86% | 1013.8 hPa | 0 mm | 0.89 m/s, 1° | 0 W/m² | - |
| 1778052778 | 7.78° C | 86% | 1013.6 hPa | 0 mm | 1.34 m/s, 0° | 0 W/m² | - |
| 1778052474 | 7.78° C | 85% | 1013.6 hPa | 0 mm | 0.45 m/s, 12° | 0 W/m² | - |
| 1778052172 | 7.78° C | 85% | 1013.4 hPa | 0 mm | 2.24 m/s, 359° | 0 W/m² | - |
| 1778051869 | 7.78° C | 84% | 1013.7 hPa | 0 mm | 0.89 m/s, 7° | 0 W/m² | - |
| 1778051567 | 7.78° C | 84% | 1013.9 hPa | 0 mm | 0.89 m/s, 8° | 0 W/m² | - |
* Rain latest hour (hover to see other rain measurements)
** Current wind speed in m/s (hover to see current wind gust speed)